Simultaneous Nadir Overpasses (SNOs) Predictions

Prediction of SNOs between GOES-17 and METOP-B Satellite Orbit:

Table of predicted SNOs for the next 14.0 days since TLE Epoch: 8/26/2023
Index Date Time (GOES-17) GOES-17 Lat,Lon METOP-B Lat,Lon Distance(km) Time Diff (sec)
1 08/26/2023 04:36:50 0.00,-104.69 -0.42,-106.61 218.93 80
2 08/27/2023 04:13:29 -0.00,-104.68 0.68,-101.61 349.76 80
3 08/28/2023 16:32:19 0.00,-104.70 0.35,-106.17 168.20 80
4 08/29/2023 16:14:19 0.00,-104.70 -0.75,-101.17 401.02 80
5 08/31/2023 04:33:18 -0.00,-104.68 -0.26,-105.77 125.05 80
6 09/01/2023 04:09:58 -0.01,-104.68 0.84,-100.77 444.08 80
7 09/02/2023 16:28:48 0.01,-104.70 0.17,-105.34 73.57 80
8 09/03/2023 16:10:49 0.01,-104.70 -0.99,-100.35 496.07 80
9 09/05/2023 04:29:47 -0.00,-104.68 -0.07,-104.94 29.33 80
10 09/07/2023 16:27:57 0.00,-104.69 -0.04,-104.50 21.60 80
